FW9692 Weather Reports


time (UTC)temp
C
wind
direction
speed
KPH
gust
KPH
rain 1hr
cm
rain 24hr
cm
rain mn
cm
humidity
%
barometer
mb
20260508140009 14 64 9.7 14.5 0.00 0.00 0.00 85 1003.5
20260508134559 14 59 4.8 9.7 0.00 0.00 0.00 85 1003.5
20260508133108 13 178 0.0 3.2 0.00 0.00 0.00 85 1003.5
20260508133003 13 119 0.0 3.2 0.00 0.00 0.00 85 1003.5
20260508131602 13 41 6.4 11.3 0.00 0.00 0.00 84 1003.4
20260508130100 14 93 9.7 16.1 0.00 0.00 0.00 83 1003.2
20260508124525 13 117 4.8 11.3 0.00 0.00 0.00 83 1002.9
20260508123025 13 88 3.2 9.7 0.00 0.00 0.00 82 1002.7
20260508121525 13 84 8.0 11.3 0.00 0.00 0.00 81 1002.5
20260508114510 13 137 4.8 9.7 0.00 0.00 0.00 80 1002.5
20260508113009 14 137 4.8 11.3 0.00 0.00 0.00 79 1002.6
20260508111507 14 121 4.8 14.5 0.00 0.00 0.00 80 1002.3
20260508110006 14 139 9.7 20.9 0.00 0.00 0.00 81 1002.3
20260508104555 15 150 14.5 19.3 0.00 0.00 0.00 80 1002.3
20260508103153 14 138 17.7 24.1 0.00 0.00 0.00 80 1002.4
20260508101553 15 163 17.7 22.5 0.00 0.00 0.00 79 1002.8
20260508100049 14 156 11.3 17.7 0.00 0.00 0.00 77 1002.9
20260508094557 14 150 8.0 12.9 0.00 0.00 0.00 76 1003.2
20260508093054 14 142 17.7 22.5 0.00 0.00 0.00 75 1002.8
20260508091607 14 137 16.1 20.9 0.00 0.00 0.00 74 1002.5
20260508090055 15 131 12.9 16.1 0.00 0.00 0.00 71 1002.7
20260508084522 15 121 12.9 17.7 0.00 0.00 0.00 70 1003.0
20260508083020 15 128 6.4 17.7 0.00 0.00 0.00 69 1003.2
20260508081525 15 65 11.3 16.1 0.00 0.00 0.00 69 1002.9
20260508080029 15 171 8.0 11.3 0.00 0.00 0.00 68 1003.7
20260508074536 15 150 6.4 12.9 0.00 0.00 0.00 68 1003.9
20260508073033 15 132 9.7 16.1 0.00 0.00 0.00 69 1004.0
20260508071532 15 123 12.9 16.1 0.00 0.00 0.00 67 1004.0
20260508070031 16 110 6.4 14.5 0.00 0.00 0.00 67 1004.1
20260508064543 16 119 6.4 14.5 0.00 0.00 0.00 67 1003.8
20260508063032 16 124 8.0 14.5 0.00 0.00 0.00 67 1003.9
20260508061536 16 123 3.2 4.8 0.00 0.00 0.00 66 1003.9
20260508060032 16 148 8.0 14.5 0.00 0.00 0.00 66 1004.1
20260508054538 16 160 14.5 20.9 0.00 0.00 0.00 65 1004.0
20260508053025 16 163 19.3 24.1 0.00 0.00 0.00 65 1004.1
20260508051530 16 168 24.1 30.6 0.00 0.00 0.00 64 1004.1
20260508050023 17 173 25.7 33.8 0.00 0.00 0.00 64 1003.8
20260508044526 17 157 27.4 33.8 0.00 0.00 0.00 63 1003.8
20260508043025 17 144 27.4 35.4 0.00 0.00 0.00 62 1004.1
20260508041524 17 147 24.1 32.2 0.00 0.00 0.00 61 1004.2
20260508040039 17 153 30.6 40.2 0.00 0.00 0.00 59 1004.2
20260508034511 18 150 29.0 41.8 0.00 0.00 0.00 58 1003.8
20260508033009 18 142 29.0 37.0 0.00 0.00 0.00 58 1003.6
20260508031514 19 142 27.4 33.8 0.00 0.00 0.00 56 1003.6
20260508030008 20 148 29.0 40.2 0.00 0.00 0.00 54 1003.5
20260508024521 20 149 27.4 35.4 0.00 0.00 0.00 53 1003.4
20260508023013 20 153 25.7 33.8 0.00 0.00 0.00 52 1003.3
20260508021512 20 140 24.1 30.6 0.00 0.00 0.00 51 1003.0
20260508020011 21 139 25.7 35.4 0.00 0.00 0.00 50 1002.8
20260508014603 21 142 22.5 35.4 0.00 0.00 0.00 49 1002.7
20260508013001 21 135 27.4 33.8 0.00 0.00 0.00 47 1002.6
20260508011600 21 131 24.1 32.2 0.00 0.00 0.00 46 1002.5
20260508011502 21 137 22.5 32.2 0.00 0.00 0.00 45 1002.5
20260508010059 22 139 27.4 35.4 0.00 0.00 0.00 45 1002.5
20260508004523 22 128 16.1 25.7 0.00 0.00 0.00 45 1002.4
20260508003018 22 150 20.9 30.6 0.00 0.00 0.00 44 1002.7
20260508001517 22 121 17.7 27.4 0.00 0.00 0.00 44 1002.6
20260508000017 22 137 12.9 24.1 0.00 0.00 0.00 44 1002.4
20260507234528 22 113 9.7 27.4 0.00 0.00 0.00 44 1002.5
20260507233018 22 134 19.3 30.6 0.00 0.00 0.00 44 1002.4
20260507231511 22 137 14.5 27.4 0.00 0.00 0.00 43 1002.6
20260507230015 22 142 19.3 29.0 0.00 0.00 0.00 44 1002.7
20260507224507 22 109 16.1 37.0 0.00 0.00 0.00 43 1003.0
20260507223007 22 119 14.5 24.1 0.00 0.00 0.00 42 1003.1
20260507221559 22 171 12.9 25.7 0.00 0.00 0.00 43 1003.3
20260507220057 21 134 17.7 27.4 0.00 0.00 0.00 45 1003.4
20260507214505 21 141 16.1 24.1 0.00 0.00 0.00 45 1003.6
20260507213002 21 144 8.0 29.0 0.00 0.00 0.00 45 1004.0
20260507211603 20 132 9.7 22.5 0.00 0.00 0.00 46 1004.5
20260507210113 20 101 6.4 12.9 0.00 0.00 0.00 48 1004.6
20260507204546 19 135 3.2 19.3 0.00 0.00 0.00 49 1004.8
20260507203040 19 161 4.8 19.3 0.00 0.00 0.00 49 1004.9
20260507201539 19 130 9.7 27.4 0.00 0.00 0.00 50 1005.1
20260507200046 18 87 17.7 27.4 0.00 0.00 0.00 52 1005.4
20260507194511 18 78 9.7 19.3 0.00 0.00 0.00 53 1005.8
20260507193002 17 108 14.5 20.9 0.00 0.00 0.00 54 1006.1
20260507191603 17 85 4.8 25.7 0.00 0.00 0.00 55 1006.3
20260507191501 17 296 8.0 25.7 0.00 0.00 0.00 54 1006.2
20260507190110 16 221 6.4 19.3 0.00 0.00 0.00 57 1006.6
20260507184553 16 30 3.2 24.1 0.00 0.00 0.00 58 1006.9
20260507183111 16 33 8.0 16.1 0.00 0.00 0.00 59 1007.1
20260507181556 16 104 4.8 12.9 0.00 0.00 0.00 60 1007.3
20260507180052 15 90 9.7 20.9 0.00 0.00 0.00 61 1007.6
20260507174536 15 107 6.4 17.7 0.00 0.00 0.00 61 1008.0
20260507173045 15 90 6.4 17.7 0.00 0.00 0.00 61 1008.1
20260507171533 14 63 9.7 17.7 0.00 0.00 0.00 63 1008.3
20260507170033 14 67 8.0 20.9 0.00 0.00 0.00 64 1008.4
20260507164544 13 51 16.1 25.7 0.00 0.00 0.00 64 1008.6
20260507163032 13 56 12.9 20.9 0.00 0.00 0.00 65 1008.8
20260507161542 13 82 14.5 22.5 0.00 0.00 0.00 65 1008.9
20260507160031 13 65 9.7 22.5 0.00 0.00 0.00 66 1008.9
20260507154528 13 80 11.3 19.3 0.00 0.00 0.00 66 1009.1
20260507153034 12 57 16.1 22.5 0.00 0.00 0.00 66 1009.0
20260507151526 12 79 17.7 24.1 0.00 0.00 0.00 66 1009.0
20260507150031 12 79 16.1 20.9 0.00 0.00 0.00 66 1009.0
20260507144530 12 67 17.7 27.4 0.00 0.00 0.00 66 1009.1
20260507143025 12 79 17.7 25.7 0.00 0.00 0.00 66 1009.1
20260507141521 12 87 17.7 24.1 0.00 0.00 0.00 66 1009.1